Вернуться в каталог

RASSVET-3 24

АктивенPO
NORAD 100090·PAYLOAD·🇷🇺 Russia

Запущен Jul 19, 2026 с Plesetsk Cosmodrome

Loading…

Ближайшие Пролёты (ближайшие 24 часа)

TLE

СвежийSource: Space-Track

Эпоха: Sep 14, 2026, 10:29 UTC

1 A0090U 26165H   26257.43740898 -.00044571  00000-0 -46425-3 0  9991
2 A0090  82.2997 167.9671 0008475 195.3657 164.7345 15.64653548  8921

Отслеживайте RASSVET-3 24 в реальном времени с AllMySat

Download on the App Store